TIME,DELAY(SENSOR),PRES,OXYGEN,RAWTEMP,T(OPTODE),TCPHASE,FLUOR,BETA(BETA700),BETA(BETA412),BETA(BETA440),CDOM,C(CSC),ED(ED412.40),ED(ED444.00),ED(ED489.70),ED(ED554.30),LU(LU411.80),LU(LU443.40),LU(LU489.60),LU(LU554.10),COMP,TILTX,TILTY,CHECK
1349320962,5807,828.8300170898438000,42.1484489440918000,659.0225830078125000,4.6601471900939940,54.6596984863281250,53,101,88,80,80,15225,2147756800,2147421412,2148011739,2147873581,2147639625,2147068233,2148254820,2147194953,532,5,13,13512
1349324558,5808,896.2999877929688000,46.1703491210937500,667.4987792968750000,4.3807868957519530,54.1801681518554700,53,100,87,79,81,15228,2147760237,2147418249,2148011072,2147874642,2147643986,2147066944,2148261138,2147196699,835,5,13,29135
1349328158,5805,910.5499877929688000,46.2201194763183600,668.5629272460938000,4.3456587791442870,54.1850891113281250,53,99,87,78,82,15225,2147757750,2147421686,2148009956,2147877942,2147639451,2147064795,2148256539,2147198820,250,5,13,57996
1349331758,5805,935.5100097656250000,47.8577117919921900,671.7783813476562000,4.2394309043884280,53.9930000305175800,52,97,88,78,81,15227,2147759542,2147419081,2148012416,2147876416,2147643849,2147063378,2148262308,2147197065,132,5,13,6506
1349335358,5809,943.2500000000000000,47.8934898376464840,671.9291992187500000,4.2344470024108890,53.9912986755371100,52,98,88,78,81,15227,2147762029,2147420370,2148009956,2147871021,2147644480,2147068032,2148260626,2147196260,297,5,13,22227
1349338958,5805,940.2700195312500000,47.7667388916015600,672.1282958984375000,4.2278671264648440,54.0112380981445300,53,101,90,80,80,15225,2147761645,2147421220,2148010578,2147875136,2147641280,2147065645,2148256146,2147199698,2352,5,13,4308
1349342558,5812,971.3499755859375000,48.6753311157226560,674.1436157226562000,4.1612210273742680,53.9028511047363300,52,99,86,78,81,15225,2147760896,2147423990,2148009088,2147876132,2147643483,2147065874,2148263561,2147196224,3368,4,13,38856
1349346158,5808,979.5499877929688000,48.7217102050781250,673.9973144531250000,4.1660628318786620,53.8962593078613300,53,98,87,79,81,15224,2147760630,2147422784,2148009645,2147872740,2147642834,2147063570,2148263826,2147197586,3402,5,13,39838
1349349758,5809,988.2100219726562000,48.3478088378906250,673.0230712890625000,4.1982817649841310,53.9385414123535160,53,99,86,80,82,15216,2147760804,2147420443,2148011392,2147873170,2147643968,2147066898,2148260626,2147193316,15,5,13,48529
1349353358,5811,985.6400146484375000,47.3084106445312500,672.1212158203125000,4.2280998229980470,54.0727081298828100,52,100,90,79,81,15210,2147759862,2147420132,2148009673,2147874724,2147643510,2147060617,2148260918,2147195830,346,5,13,64217
1349356958,5809,976.9699707031250000,47.7551307678222660,673.6608276367188000,4.1771907806396480,54.0316810607910160,53,98,89,79,81,15214,2147761938,2147420370,2148012580,2147876790,2147644470,2147061028,2148261577,2147198144,269,4,13,10860
1349360558,5805,986.0599975585938000,48.1958312988281250,674.0872802734375000,4.1630840301513670,53.9752693176269500,52,99,89,78,81,15210,2147757440,2147419648,2148010240,2147875876,2147645412,2147057910,2148263021,2147193718,563,5,13,24311
1349364158,5809,980.9600219726562000,47.9771499633789060,673.8687133789062000,4.1703171730041500,54.0009307861328100,52,101,88,79,82,15203,2147760777,2147419373,2148012690,2147872758,2147643218,2147063213,2148263076,2147197833,2259,4,13,13234
1349367758,5809,978.8699951171875000,49.0230102539062500,675.1926269531250000,4.1265139579772950,53.8706207275390600,52,99,88,79,82,15199,2147760566,2147420836,2148008192,2147873600,2147644964,2147062701,2148261833,2147198774,3261,5,13,62871
1349371358,5808,977.5599975585938000,48.2537002563476560,675.3251953125000000,4.1221261024475100,53.9792289733886700,52,96,89,80,82,15202,2147758162,2147420763,2148010697,2147875254,2147643437,2147067236,2148259154,2147199670,3582,4,13,1086
1349374958,5807,980.9899902343750000,48.3537292480468750,675.2579956054688000,4.1243500709533690,53.9653282165527340,53,99,87,78,82,15202,2147759680,2147421101,2148009682,2147875145,2147640521,2147062857,2148254884,2147197824,3476,5,13,49466
1349378558,5807,980.6500244140625000,48.5004386901855500,675.2462158203125000,4.1247391700744630,53.9468917846679700,52,98,83,79,83,15199,2147761024,2147422326,2148008758,2147875035,2147645120,2147063524,2148261165,2147195062,3492,4,13,49474
1349382158,5811,986.9500122070312000,48.5705299377441400,675.2559814453125000,4.1244130134582520,53.9342689514160160,53,100,89,80,82,15200,2147759771,2147417225,2148009709,2147876205,2147646134,2147064548,2148261330,2147195757,3472,5,13,7448
1349385758,5812,984.2800292968750000,48.5236396789550800,675.2440185546875000,4.1248111724853520,53.9401283264160160,53,101,91,80,82,15198,2147758564,2147421184,2148006107,2147872786,2147641051,2147063908,2148261056,2147196790,3538,5,13,29568
1349389358,5809,978.9799804687500000,48.7538604736328100,675.2672119140625000,4.1240458488464355,53.9052009582519500,53,101,87,79,82,15197,2147761179,2147418660,2148006857,2147874230,2147649033,2147063917,2148260827,2147197778,11,5,13,10518
1349392958,5810,983.5999755859375000,48.8050117492675800,675.2310180664062000,4.1252422332763670,53.8998413085937500,52,99,91,79,82,15195,2147760493,2147425682,2148011090,2147876205,2147644690,2147062043,2148261357,2147192246,178,4,13,35510
1349396558,5808,986.6599731445312000,48.6616516113281250,674.9697875976562000,4.1338839530944820,53.9164581298828100,52,99,85,81,82,15195,2147762852,2147420306,2148012827,2147873133,2147643593,2147062656,2148260470,2147198573,191,5,13,727
1349400158,5810,985.7199707031250000,48.0610084533691400,673.9418945312500000,4.1678938865661620,53.9933509826660160,52,100,89,80,81,15191,2147760484,2147422848,2148008576,2147876077,2147641865,2147060736,2148258816,2147197659,3017,4,13,38994
1349403758,5808,993.0599975585938000,48.2907409667968750,674.0814208984375000,4.1632800102233890,53.9599189758300800,52,102,88,78,80,15194,2147757202,2147421869,2148011172,2147872338,2147643291,2147060928,2148260160,2147196077,2869,4,13,9488
1349407358,5808,990.0800170898438000,47.8311309814453100,674.9517822265625000,4.1344799995422360,54.0305900573730500,52,98,87,79,82,15196,2147759113,2147421184,2148008877,2147872292,2147642843,2147059620,2148260955,2147196480,192,5,13,46069
1349410958,5805,992.8699951171875000,48.3148612976074200,674.9641723632812000,4.1340708732604980,53.9645385742187500,52,100,85,79,81,15195,2147759972,2147421814,2148010669,2147874852,2147644242,2147065737,2148257792,2147199067,3595,4,13,13477
1349414558,5809,994.6599731445312000,48.2041702270507800,674.9171142578125000,4.1356301307678220,53.9835014343261700,52,99,87,77,82,15196,2147760914,2147421650,2148010806,2147876096,2147646418,2147068470,2148259958,2147196397,3559,4,13,11847
1349418158,5809,996.9199829101562000,48.2725906372070300,674.6262817382812000,4.1452522277832030,53.9700202941894500,53,100,90,80,81,15169,2147758720,2147421046,2148010843,2147871277,2147642496,2147062765,2148264429,2147196242,80,5,13,64079
1349421758,5812,984.4299926757812000,48.1767807006835940,675.2149047851562000,4.1257739067077640,53.9893798828125000,53,98,90,78,82,15168,2147761600,2147418706,2148009700,2147876507,2147645385,2147062573,2148260416,2147193984,3557,4,13,48113
1349425358,5807,984.2600097656250000,48.0720291137695300,675.3220825195312000,4.1222248077392580,54.0016593933105500,52,101,88,78,81,15162,2147759433,2147423341,2148011136,2147873014,2147643766,2147063707,2148256228,2147196608,1365,5,13,28312
1349428958,5811,984.8200073242188000,47.6987991333007800,675.7659301757812000,4.1075401306152340,54.0596313476562500,52,97,90,79,80,15162,2147761051,2147425106,2148010176,2147873472,2147644882,2147059565,2148266861,2147196644,3322,5,13,27488
1349432558,5808,988.5700073242188000,47.7696800231933600,675.7714843750000000,4.1073508262634280,54.0563087463378900,52,99,89,79,81,15163,2147761316,2147426276,2148011611,2147872274,2147642221,2147063387,2148265801,2147196973,278,5,13,61620
1349436158,5809,993.0399780273438000,47.8681411743164060,674.8764038085938000,4.1369757652282715,54.0247688293457000,52,106,85,78,82,15160,2147758756,2147421001,2148007680,2147871533,2147643410,2147071058,2148261421,2147195876,474,4,13,33760
1349439758,5808,985.1199951171875000,47.9173202514648440,675.2841796875000000,4.1234798431396480,54.0284614562988300,53,106,85,79,81,15164,2147756315,2147420992,2148010998,2147872914,2147643977,2147065106,2148263478,2147196516,3036,4,13,13508
1349443358,5812,991.5499877929688000,47.7012290954589840,675.1210937500000000,4.1288800239562990,54.0505294799804700,51,98,88,79,81,15162,2147759488,2147425216,2148007734,2147874578,2147645586,2147063542,2148258541,2147196361,237,5,13,9430
1349446958,5807,995.5999755859375000,48.2276916503906250,673.9423217773438000,4.1678791046142580,53.9625511169433600,52,98,86,80,82,15162,2147759131,2147422893,2148010468,2147873179,2147642066,2147063012,2148261549,2147196041,862,4,13,52291
1349450558,5807,993.9500122070312000,48.3926696777343750,674.3909301757812000,4.1530418395996090,53.9477806091308600,52,101,85,79,80,15162,2147762011,2147422436,2148008859,2147872384,2147641462,2147062656,2148254363,2147199085,3413,5,13,36006
1349454158,5810,991.0900268554688000,47.7510299682617200,675.1041259765625000,4.1294441223144530,54.0437202453613300,53,100,91,78,81,15158,2147758756,2147421632,2148009526,2147873856,2147643858,2147064018,2148261906,2147196763,223,4,13,12745
1349457758,5812,986.1300048828125000,48.4032707214355500,676.2736206054688000,4.0907340049743650,53.9724693298339840,53,97,88,79,82,15155,2147761974,2147421229,2148009572,2147875876,2147645238,2147067008,2148261248,2147196717,245,5,13,54147
1349461358,5808,993.8699951171875000,48.0769500732421900,675.3012695312500000,4.1229171752929690,54.0036888122558600,53,100,91,79,82,15154,2147760475,2147418944,2148008365,2147873700,2147643757,2147063707,2148257298,2147198180,3481,4,13,998
1349464958,5809,995.9699707031250000,48.5788688659668000,675.1605224609375000,4.1275768280029300,53.9287681579589840,53,104,87,78,81,15157,2147760557,2147422125,2148011730,2147874066,2147647030,2147068315,2148262134,2147197284,378,5,13,46458
1349466056,5807,988.0599975585938000,48.3192214965820300,675.2050170898438000,4.1261038780212400,53.9692687988281250,52,100,88,79,82,15219,2147759936,2147423606,2148010934,2147874130,2147645412,2147069110,2148262134,2147196617,3289,5,13,12306
